Van, Turkey

5:42 AM +03 on October 20, 2017 (GMT +0300)
Van

Weather History for LTCI - January, 2013

Change the Weather History Date:

Saturday, January 12, 2013

  Actual Average Record
Temperature  
Mean Temperature 16 °F -  
Max Temperature 29 °F 35 °F 42 °F (2003)
Min Temperature 2 °F 17 °F 2 °F (2013)
Degree Days  
Heating Degree Days 50    
Moisture  
Dew Point 10 °F    
Average Humidity 68    
Maximum Humidity 100    
Minimum Humidity 37    
Precipitation  
Precipitation 0.08 in 0.05 in - ()
Sea Level Pressure  
Sea Level Pressure 30.27 in    
Wind  
Wind Speed 5 mph ()    
Max Wind Speed 9 mph    
Max Gust Speed -    
Visibility 5.6 miles    
Events      
Averages and records for this station are not official NWS values.
T = Trace of Precipitation, MM = Missing Value Source: Averaged Metar Reports

Daily Weather History Graph

Daily Weather History Graph

Search for Another Location

Airport or City:

Trip Planner

Search our weather history database for the weather conditions in past years. The results will help you decide how hot, cold, wet, or windy it might be!

Date:

Astronomy

Jan. 12, 2013 Rise Set
Actual Time 6:23 AM EET 4:06 PM EET
Civil Twilight 5:54 AM EET 4:35 PM EET
Nautical Twilight 5:21 AM EET 5:08 PM EET
Astronomical Twilight 4:49 AM EET 5:40 PM EET
Moon 6:27 AM EET (1/12) 5:08 PM EET (1/12)
Length of Visible Light 10h 41m
Length of Day
9h 43m
New Moon, 1% of the Moon is Illuminated
Jan 12
New Moon
Jan 19
First Quarter
Jan 27
Full
Feb 3
Last Quarter
Feb 10
New

Hourly Weather History & Observations

Time (EET) Temp. Windchill Dew Point Humidity Pressure Visibility Wind Dir Wind Speed Gust Speed Precip Events Conditions
12:50 AM 8.6 °F 0.1 °F 1.4 °F 73% 30.24 in 6.2 mi East 4.6 mph - N/A   Scattered Clouds
1:50 AM 6.8 °F -0.1 °F 3.2 °F 85% 30.27 in 6.2 mi East 3.5 mph - N/A   Scattered Clouds
2:00 AM 7 °F - 7 °F 100%  in 6 mi East 3.5 mph - -   Partly Cloudy
2:50 AM 6.8 °F - 3.2 °F 85% 30.27 in 6.2 mi Variable 2.3 mph - N/A   Scattered Clouds
3:50 AM 17.6 °F 12.3 °F 6.8 °F 63% 30.27 in 6.2 mi SSE 3.5 mph - N/A   Scattered Clouds
4:50 AM 19.4 °F 8.6 °F 5.0 °F 54% 30.27 in 6.2 mi SE 9.2 mph - N/A   Scattered Clouds
5:50 AM 17.6 °F 10.7 °F 8.6 °F 68% 30.27 in 6.2 mi SE 4.6 mph - N/A   Scattered Clouds
6:50 AM 19.4 °F 10.4 °F 6.8 °F 58% 30.27 in 6.2 mi SE 6.9 mph - N/A   Scattered Clouds
7:50 AM 23.0 °F 14.7 °F 8.6 °F 54% 30.30 in 6.2 mi SSE 6.9 mph - N/A   Scattered Clouds
8:00 AM 23 °F - 8 °F 37%  in 7 mi SSE 6.9 mph - -   Partly Cloudy
8:50 AM 23.0 °F 14.7 °F 10.4 °F 59% 30.30 in 6.2 mi SE 6.9 mph - N/A   Scattered Clouds
9:50 AM 24.8 °F 16.9 °F 10.4 °F 54% 30.30 in 6.2 mi SE 6.9 mph - N/A   Scattered Clouds
10:50 AM 26.6 °F 19.1 °F 12.2 °F 55% 30.30 in 6.2 mi SE 6.9 mph - N/A   Scattered Clouds
11:50 AM 26.6 °F 18.2 °F 12.2 °F 55% 30.27 in 6.2 mi SE 8.1 mph - N/A   Scattered Clouds
12:50 PM 26.6 °F 19.1 °F 14.0 °F 59% 30.27 in 6.2 mi SSE 6.9 mph - N/A   Scattered Clouds
1:50 PM 26.6 °F 21.2 °F 14.0 °F 59% 30.27 in 6.2 mi SE 4.6 mph - N/A   Scattered Clouds
2:00 PM 27 °F - 14 °F 44%  in 6 mi SE 4.6 mph - -   Partly Cloudy
2:50 PM 24.8 °F 16.9 °F 14.0 °F 64% 30.27 in 6.2 mi SE 6.9 mph - N/A   Scattered Clouds
3:50 PM 23.0 °F 17.0 °F 14.0 °F 68% 30.27 in 6.2 mi ENE 4.6 mph - N/A   Scattered Clouds
4:50 PM 19.4 °F 10.4 °F 14.0 °F 80% 30.30 in 4.3 mi ENE 6.9 mph - N/A   Scattered Clouds
5:50 PM 19.4 °F 11.5 °F 14.0 °F 80% 30.27 in 4.3 mi ENE 5.8 mph - N/A   Scattered Clouds
6:50 PM 17.6 °F 10.7 °F 12.2 °F 79% 30.27 in 4.3 mi East 4.6 mph - N/A   Scattered Clouds
7:50 PM 15.8 °F 10.2 °F 10.4 °F 79% 30.27 in 4.3 mi NE 3.5 mph - N/A   Scattered Clouds
8:00 PM 16 °F - 11 °F 74%  in 4 mi NE 4.6 mph - -   Mist
8:50 PM 10.4 °F 2.2 °F 5.0 °F 79% 30.27 in 4.3 mi NNE 4.6 mph - N/A   Scattered Clouds
9:50 PM 15.8 °F 7.2 °F 8.6 °F 73% 30.27 in 4.3 mi ENE 5.8 mph - N/A   Scattered Clouds
10:50 PM 12.2 °F - 8.6 °F 85% 30.27 in 4.3 mi Variable 2.3 mph - N/A   Scattered Clouds
11:50 PM 14.0 °F 5.1 °F 8.6 °F 79% 30.24 in 4.3 mi NE 5.8 mph - N/A   Scattered Clouds